Location: Ay?beleni
(36.6500°N, 30.3000°E)
Time: 23:40:35
(UTC+00:00)

Cosmos 1340 Rocket - Pass Details

Date: 09 April 2020
Orbit: 529 x 559 km, 81.2° (Epoch: 06 June)

Event Time Altitude Azimuth Distance (km) Brightness Sun altitude
Rises 17:24:35 0° 177° (S) 2,726 6.1 -11.7°
Reaches altitude 10° 17:26:47 10° 173° (S) 1,833 5.2 -12.2°
Maximum altitude 17:30:44 54° 96° (E) 673 2.9 -12.9°
Drops below altitude 10° 17:34:41 10° 18° (NNE) 1,832 5.5 -13.6°
Sets 17:36:52 0° 14° (NNE) 2,725 6.5 -14.1°
